Regional Weather Roundup
Issued by NWS

Home | Current Version | Previous Version | Text Only | Print | Product List | Glossary On
Versions: 1 2 3 4 5 6 7 8 9 10 11 12 13 14 15 16 17 18 19 20 21 22 23 24 25 26 27 28 29 30 31 32 33 34 35 36 37 38 39 40 41 42 43 44 45 46 47 48 49 50
000
ASUS44 KOUN 200900
RWROK

WEATHER ROUNDUP FOR OKLAHOMA
NATIONAL WEATHER SERVICE NORMAN OK
400 AM CDT MON OCT 20 2014

NOTE: "FAIR" INDICATES FEW OR NO CLOUDS BELOW 12,000 FEET WITH NO
      SIGNIFICANT WEATHER AND/OR OBSTRUCTIONS TO VISIBILITY.

OKZ001>007-009>012-014-015-017-201000-
NORTHWEST OKLAHOMA AND THE PANHANDLE

CITY           SKY/WX    TMP DP  RH WIND       PRES   REMARKS
GAGE           CLEAR     58  57  97 SW7       30.03S
$$

OKZ016-021>023-033>039-044-045-201000-
SOUTHWEST OKLAHOMA

CITY           SKY/WX    TMP DP  RH WIND       PRES   REMARKS
LAWTON/REGL    CLEAR     55  52  89 CALM      30.05S
LAWTON/FT SILL CLEAR     57  55  95 CALM      30.04S
FREDERICK      CLEAR     59  55  87 SE5       30.02S
CLINTON        CLEAR     60  56  86 S13       30.05S
HOBART         CLEAR     59  56  89 S10       30.05S
$$

OKZ018>020-024>031-201000-
CENTRAL OKLAHOMA

CITY           SKY/WX    TMP DP  RH WIND       PRES   REMARKS
OKLAHOMA CITY  PTCLDY    56  51  84 S7        30.04S
OKC/WILEY POST CLEAR     60  54  80 S10       30.03F
OKC/TINKER AFB CLEAR     57  51  80 S7        30.03F
STILLWATER     CLEAR     57  52  83 S7        30.01F
GUTHRIE        MOCLDY    64  54  69 S9        30.02S
$$

OKZ008-013-054>072-201000-
NORTHEAST OKLAHOMA

CITY           SKY/WX    TMP DP  RH WIND       PRES   REMARKS
TULSA          MOCLDY    57  55  93 E5        30.02F
TULSA/JONES    MOCLDY    56  53  90 CALM      30.03F
PONCA CITY     PTCLDY    60  53  77 CALM      30.01F
BARTLESVILLE   CLOUDY    57  56  96 S3        30.04F
MUSKOGEE       PTCLDY    55  51  86 S3        30.05F
$$

OKZ032-040>043-046>053-073>077-201000-
SOUTH CENTRAL/SOUTHEAST OKLAHOMA

CITY           SKY/WX    TMP DP  RH WIND       PRES   REMARKS
MCALESTER      PTCLDY    56  50  80 SW3       30.05F
$$



USA.gov is the U.S. government's official web portal to all federal, state and local government web resources and services.